Regional Weather Roundup
Issued by NWS Newport/Morehead, NC

Current Version | Previous Version | Text Only | Print | Product List | Glossary On
Versions: 1 2 3 4 5 6 7 8 9 10 11 12 13 14 15 16 17 18 19 20 21 22 23 24 25 26 27 28 29 30 31 32 33 34 35 36 37 38 39 40 41 42 43 44 45 46 47 48 49 50
000
ASUS42 KMHX 270213
RWRMHX
WEATHER ROUNDUP FOR EASTERN NORTH CAROLINA
NATIONAL WEATHER SERVICE NEWPORT/MOREHEAD CITY NC
1000 PM EDT MON JUN 26 2017

NOTE: "FAIR" INDICATES FEW OR NO CLOUDS BELOW 12,000 FEET
WITH NO SIGNIFICANT WEATHER AND/OR OBSTRUCTIONS TO VISIBILITY

NCZ015>017-031-032-045>047-102-103-270300-
NORTH COAST

CITY           SKY/WX    TMP DP  RH WIND       PRES   REMARKS
EDENTON        CLEAR     76  61  58 CALM      30.04R
ELIZABETH CITY CLEAR     74  58  57 S6        30.04R
KITTY HAWK     CLEAR     71  64  77 SE3       30.02S
MANTEO         CLEAR     70  60  69 SE3       30.04R

$$

NCZ045>047-081-094-103-104-270300-
CENTRAL COAST

CITY           SKY/WX    TMP DP  RH WIND       PRES   REMARKS
FRISCO         CLEAR     69  63  81 E3        30.03

$$

NCZ095-097-098-100-101-270300-
SOUTHERN COAST

CITY           SKY/WX    TMP DP  RH WIND       PRES   REMARKS
BEAUFORT       CLEAR     73  69  87 CALM      30.03R
CEDAR ISLAND   NOT AVBL
JACKSONVILLE   CLEAR     71  69  93 S3        30.03R
PINEY ISLAND   CLEAR    N/A N/A N/A SW3       30.03S
WILMINGTON     CLEAR     72  66  81 CALM      30.04R


$$

NCZ011>013-027>030-043-044-078>080-089-090>093-098-270300-
COASTAL PLAIN

CITY           SKY/WX    TMP DP  RH WIND       PRES   REMARKS
AHOSKIE          N/A     66  64  94 CALM      30.04R
CLINTON        CLEAR     71  63  75 CALM      30.04R
ELIZABETHTOWN  NOT AVBL
GOLDSBORO      CLEAR     71  62  74 CALM      30.02R
GREENVILLE     CLEAR     72  63  73 CALM      30.05R
HAVELOCK       CLEAR     72  66  81 SE3       30.04R
KENANSVILLE    CLEAR     68  63  83 CALM      30.04S
KINSTON        CLEAR     70  63  78 CALM      30.04R
NEW BERN       CLEAR     70  68  93 CALM      30.05R
RICHLANDS      NOT AVBL
ROCKY MOUNT    PTCLDY    71  64  78 CALM      30.03S
WASHINGTON     CLEAR    N/A N/A N/A CALM      30.03S
WHITEVILLE     CLEAR     71  66  82 CALM      30.03S

$$

AMZ130-135-150-152-154-156-158-170-250-252-270-ANZ085-086-088-633-658-670-270300-
MARINE OBSERVATIONS

STATION/POSITION TIME  TEMP    WIND        PRES    WAVE   SWELL
                       AIR SEA DIR/SP/G            HT/PER HT/PER
                 (UTC) (F)     (DEG/KT/KT) (MB)    (FT/S) (FT/S)
CHESAPEAKE LIGHT NOT AVBL
64 E VA BEACH    0150   74 75   70/  4/  4 1017.4    2/ 8   2/ 8
DUCK             0142   73 72  130/  5/  6 1016.5
2 E DUCK         NOT AVBL
OREGON INLET     0142   73 80   90/  3/  4 1016.9
13E OREGON INLT  0148      74                N/A     2/ 8   2/ 8
HATTERAS CG      0142   75 79  110/  3/  3 1016.7
DIAMOND BUOY     0150   78 81  360/  4/  6 1016.7    2/ 8   2/ 8
CAPE LOOKOUT     0200   76      CALM  /  1 1016.8
BEAUFORT LAB     0142   77 78   50/  2/  2 1016.3
30 SE NEW RVR IN 0108   77 81   30/  4/  6 1016.8
30 SE NEW RVR IN 0143      81                N/A     2/ 8
27 SE WRIGHTSVLE 0108   77 81   20/  4/  6 1016.3
5 SE WRIGHTSVLE  0108   78 80  120/  2/  6 1016.5
225 S CAPE HAT   0150   79 80  120/  8/ 10 1017.5    3/ 5   2/ 5
41 SE CHARLESTON 0150   78 81   30/  8/ 10 1016.5    3/ 5   2/ 5

$$




USA.gov is the U.S. government's official web portal to all federal, state and local government web resources and services.